カタログに戻る

SL-8 DEB

運用中LEO
NORAD 21169·DEBRIS·🇷🇺 Russia

打ち上げ Feb 12, 1991 から Plesetsk Cosmodrome

Loading…

次のパス (今後24時間)

TLE

最新Source: Space-Track

元期: Sep 14, 2026, 13:37 UTC

1 21169U 91009AG  26257.56802762  .00000008  00000-0  19618-3 0  9992
2 21169  73.9961 302.5822 0131013 111.2454  42.1701 12.22908837586056

AllMySatでSL-8 DEBをリアルタイム追跡

Download on the App Store